Change the Weather History Date:

Sunday, May 12, 2013

  Actual Average Record
Temperature  
Mean Temperature 52 °F 59 °F  
Max Temperature 63 °F 70 °F 89 °F (1948)
Min Temperature 40 °F 47 °F 34 °F (1963)
Degree Days  
Heating Degree Days 13 7  
Month to date heating degree days 79 103  
Since 1 July heating degree days 5288 5673  
Cooling Degree Days 0 1  
Month to date cooling degree days 0 6  
Year to date cooling degree days 8 11  
Growing Degree Days 4 (Base 50)    
Moisture  
Dew Point 38 °F    
Average Humidity 57    
Maximum Humidity 86    
Minimum Humidity 28    
Precipitation  
Precipitation T in 0.12 in 1.43 in (1974)
Month to date precipitation 1.26 1.49  
Year to date precipitation 12.54 14.17  
Snow  
Snow 0.00 in 0.00 in T in (1994)
Month to date snowfall 0.0 0.0  
Since 1 July snowfall 21.4 32.9  
Snow Depth 0.00 in    
Sea Level Pressure  
Sea Level Pressure 29.80 in    
Wind  
Wind Speed 11 mph (West)    
Max Wind Speed 22 mph    
Max Gust Speed 36 mph    
Visibility 10 miles    
Events      
T = Trace of Precipitation, MM = Missing Value Source: NWS Daily Summary

Daily Weather History Graph

Daily Weather History Graph

Search for Another Location

Airport or City:

Trip Planner

Search our weather history database for the weather conditions in past years. The results will help you decide how hot, cold, wet, or windy it might be!

Date:

Astronomy

May. 12, 2013 Rise Set
Actual Time 5:47 AM EDT 8:09 PM EDT
Civil Twilight 5:16 AM EDT 8:40 PM EDT
Nautical Twilight 4:38 AM EDT 9:18 PM EDT
Astronomical Twilight 3:56 AM EDT 10:00 PM EDT
Moon 7:40 AM EDT (5/12) 10:34 PM EDT (5/12)
Length of Visible Light 15h 23m
Length of Day
14h 21m
Waxing Crescent, 6% of the Moon is Illuminated
May 12
Waxing Crescent
May 18
First Quarter
May 25
Full
May 31
Last Quarter
Jun 8
New

Hourly Weather History & Observations

Time (EDT) Temp. Windchill Dew Point Humidity Pressure Visibility Wind Dir Wind Speed Gust Speed Precip Events Conditions
12:51 AM 57.0 °F - 51.1 °F 81% 29.75 in 10.0 mi WSW 5.8 mph - N/A   Clear
1:51 AM 57.0 °F - 51.1 °F 81% 29.72 in 10.0 mi West 5.8 mph - N/A   Partly Cloudy
2:51 AM 55.9 °F - 51.1 °F 84% 29.72 in 10.0 mi WSW 5.8 mph - N/A   Clear
3:51 AM 57.0 °F - 48.0 °F 72% 29.71 in 10.0 mi West 6.9 mph - 0.00 in   Partly Cloudy
4:51 AM 55.9 °F - 46.9 °F 72% 29.72 in 10.0 mi West 5.8 mph - N/A   Clear
5:51 AM 55.0 °F - 44.1 °F 67% 29.75 in 10.0 mi WNW 3.5 mph - N/A   Clear
6:51 AM 51.1 °F - 45.0 °F 80% 29.75 in 10.0 mi WSW 3.5 mph - N/A   Clear
7:51 AM 57.0 °F - 46.9 °F 69% 29.75 in 10.0 mi West 9.2 mph - N/A   Clear
8:51 AM 57.9 °F - 46.9 °F 67% 29.75 in 10.0 mi WNW 12.7 mph 21.9 mph N/A   Partly Cloudy
9:51 AM 62.1 °F - 46.0 °F 56% 29.74 in 10.0 mi West 13.8 mph 19.6 mph N/A   Partly Cloudy
10:51 AM 61.0 °F - 39.9 °F 46% 29.75 in 10.0 mi West 12.7 mph 21.9 mph N/A   Mostly Cloudy
11:51 AM 60.1 °F - 36.0 °F 41% 29.76 in 10.0 mi West 17.3 mph 25.3 mph N/A   Partly Cloudy
12:51 PM 60.1 °F - 30.9 °F 33% 29.77 in 10.0 mi WNW 12.7 mph - N/A   Clear
1:51 PM 61.0 °F - 32.0 °F 34% 29.78 in 10.0 mi WNW 15.0 mph 23.0 mph N/A   Clear
2:51 PM 60.1 °F - 30.9 °F 33% 29.79 in 10.0 mi West 18.4 mph 26.5 mph N/A   Partly Cloudy
3:51 PM 61.0 °F - 30.0 °F 31% 29.80 in 10.0 mi West 16.1 mph 29.9 mph N/A   Partly Cloudy
4:51 PM 60.1 °F - 28.0 °F 30% 29.81 in 10.0 mi West 18.4 mph 25.3 mph N/A   Partly Cloudy
5:51 PM 59.0 °F - 26.1 °F 28% 29.83 in 10.0 mi West 16.1 mph 33.4 mph N/A   Partly Cloudy
6:51 PM 57.0 °F - 25.0 °F 29% 29.84 in 10.0 mi West 11.5 mph 26.5 mph N/A   Mostly Cloudy
7:51 PM 55.0 °F - 28.0 °F 35% 29.88 in 10.0 mi WNW 13.8 mph 19.6 mph N/A   Overcast
8:51 PM 52.0 °F - 28.0 °F 40% 29.91 in 10.0 mi WNW 16.1 mph 21.9 mph N/A   Mostly Cloudy
9:51 PM 48.9 °F - 30.9 °F 50% 29.94 in 10.0 mi WNW 6.9 mph - N/A   Clear
10:51 PM 46.9 °F - 30.9 °F 54% 29.97 in 10.0 mi WNW 5.8 mph - N/A   Clear
11:51 PM 46.0 °F 42.5 °F 30.0 °F 54% 29.98 in 10.0 mi West 6.9 mph - N/A   Clear